{"data":{"norad_id":55416,"epoch":"2026-05-24T17:34:35.060736Z","epoch_age_seconds":108653,"freshness":"FRESH","line1":"1 55416U 23014AB  26144.73235024  .00000436  00000+0  44303-4 0  9994","line2":"2 55416  69.9995 252.6806 0003311 270.5410  89.5370 14.98334644182959","mean_motion":14.98334644,"eccentricity":0.0003311,"inclination_deg":69.9995,"raan_deg":252.6806,"arg_perigee_deg":270.541,"mean_anomaly_deg":89.537,"bstar":4.4303e-5,"rev_number":18295,"period_min":96.106701247709,"perigee_km":569.74032568338,"apogee_km":574.34273390581,"semimajor_km":6950.1785297946,"source":"CELESTRAK","updated_at":"2026-05-25T13:38:17.797468Z"}}